Location: ?????????
(38.0736°N, 23.2119°E)
Time: 05:42:45
(UTC+00:00)

Resurs 01 Rocket - Visible Passes

Search period start: 13 July 2024 00:00
Search period end: 23 July 2024 00:00
Orbit: 630 x 640 km, 97.8° (Epoch: 12 July)

Date Brightness Start Highest point End Pass type
(mag) Time Alt. Az. Time Alt. Az. Time Alt. Az.
13 Jul 3.4 19:02:59 10° SSW 19:06:50 30° W 19:10:42 10° NW visible
14 Jul 4.2 19:26:00 10° SW 19:28:54 17° W 19:31:49 10° NW visible
15 Jul 1.7 18:09:53 10° SSE 18:14:12 67° ENE 18:18:34 10° N visible
16 Jul 1.9 18:31:46 10° S 18:36:08 68° W 18:40:30 10° NNW visible
17 Jul 3.0 18:54:03 10° SSW 18:58:05 37° W 19:02:11 10° NNW visible
18 Jul 3.9 19:16:47 10° SW 19:20:08 21° W 19:23:30 10° NW visible
19 Jul 4.4 19:40:31 10° WSW 19:42:15 12° W 19:43:59 10° WNW visible
20 Jul 1.7 18:23:02 10° SSE 18:27:24 85° WSW 18:31:49 10° NNW visible
21 Jul 2.6 18:45:08 10° S 18:49:21 46° W 18:53:35 10° NNW visible
22 Jul 3.6 19:07:40 10° SSW 19:11:21 26° W 19:15:04 10° NW visible
